| time (UTC) | temp F | wind direction | speed knots | gust knots | rain 1hr in | rain 24hr in | rain mn in | humidity % | barometer mb |
| 20260505041706 | 71 | 9 | 0.9 | 0.9 | 0.00 | 0.00 | 0.00 | 72 | 1002.2 |
| 20260505041204 | 71 | 273 | 0.9 | 0.9 | 0.00 | 0.00 | 0.00 | 71 | 1002.2 |
| 20260505040701 | 71 | 99 | 2.6 | 2.6 | 0.00 | 0.00 | 0.00 | 72 | 1002.0 |
| 20260505040158 | 71 | 45 | 0.9 | 1.7 | 0.00 | 0.00 | 0.00 | 72 | 1002.1 |
| 20260505035654 | 71 | 67 | 0.0 | 0.9 | 0.00 | 0.00 | 0.00 | 71 | 1002.4 |
| 20260505035151 | 71 | 49 | 0.9 | 1.7 | 0.00 | 0.00 | 0.00 | 71 | 1002.5 |
| 20260505034647 | 71 | 115 | 0.9 | 0.9 | 0.00 | 0.00 | 0.00 | 71 | 1002.3 |
| 20260505034145 | 72 | 47 | 0.0 | 0.9 | 0.00 | 0.00 | 0.00 | 70 | 1002.5 |
| 20260505033641 | 72 | 174 | 0.9 | 0.9 | 0.00 | 0.00 | 0.00 | 70 | 1002.4 |
| 20260505033139 | 72 | 178 | 2.6 | 2.6 | 0.00 | 0.00 | 0.00 | 70 | 1002.3 |
| 20260505032637 | 72 | 92 | 0.9 | 0.9 | 0.00 | 0.00 | 0.00 | 69 | 1002.5 |
| 20260505032133 | 72 | 158 | 0.9 | 0.9 | 0.00 | 0.00 | 0.00 | 68 | 1002.4 |
| 20260505031630 | 72 | 35 | 0.0 | 0.0 | 0.00 | 0.00 | 0.00 | 67 | 1002.1 |
| 20260505031126 | 73 | 45 | 0.0 | 0.0 | 0.00 | 0.00 | 0.00 | 66 | 1002.3 |
| 20260505030624 | 73 | 41 | 0.0 | 0.9 | 0.00 | 0.00 | 0.00 | 65 | 1002.0 |
| 20260505030119 | 73 | 52 | 0.0 | 0.9 | 0.00 | 0.00 | 0.00 | 64 | 1002.1 |
| 20260505025615 | 73 | 199 | 0.9 | 1.7 | 0.00 | 0.00 | 0.00 | 63 | 1001.9 |
| 20260505025114 | 74 | 47 | 0.0 | 0.9 | 0.00 | 0.00 | 0.00 | 63 | 1002.2 |
| 20260505024611 | 74 | 261 | 0.9 | 0.9 | 0.00 | 0.00 | 0.00 | 62 | 1002.1 |
| 20260505024108 | 74 | 154 | 0.9 | 1.7 | 0.00 | 0.00 | 0.00 | 62 | 1001.9 |
| 20260505023606 | 73 | 202 | 0.9 | 1.7 | 0.00 | 0.00 | 0.00 | 61 | 1001.7 |
| 20260505023103 | 73 | 85 | 0.9 | 0.9 | 0.00 | 0.00 | 0.00 | 60 | 1001.8 |
| 20260505022600 | 73 | 46 | 0.0 | 0.0 | 0.00 | 0.00 | 0.00 | 59 | 1001.9 |
| 20260505022057 | 73 | 43 | 0.0 | 0.0 | 0.00 | 0.00 | 0.00 | 59 | 1001.7 |
| 20260505021554 | 73 | 42 | 0.0 | 0.0 | 0.00 | 0.00 | 0.00 | 58 | 1001.3 |
| 20260505021051 | 73 | 59 | 0.0 | 0.9 | 0.00 | 0.00 | 0.00 | 58 | 1001.4 |
| 20260505020550 | 73 | 48 | 0.0 | 0.0 | 0.00 | 0.00 | 0.00 | 58 | 1001.4 |
| 20260505020048 | 73 | 40 | 0.0 | 0.0 | 0.00 | 0.00 | 0.00 | 58 | 1001.1 |
| 20260505015545 | 73 | 45 | 0.0 | 0.0 | 0.00 | 0.00 | 0.00 | 57 | 1001.3 |
| 20260505015041 | 73 | 74 | 0.0 | 0.9 | 0.00 | 0.00 | 0.00 | 58 | 1001.0 |
| 20260505014538 | 74 | 54 | 0.9 | 0.9 | 0.00 | 0.00 | 0.00 | 58 | 1001.3 |
| 20260505014035 | 74 | 51 | 0.0 | 0.0 | 0.00 | 0.00 | 0.00 | 56 | 1001.0 |
| 20260505013532 | 75 | 70 | 0.9 | 0.9 | 0.00 | 0.00 | 0.00 | 55 | 1000.9 |
| 20260505013030 | 75 | 52 | 0.0 | 0.0 | 0.00 | 0.00 | 0.00 | 55 | 1001.0 |
| 20260505012528 | 76 | 49 | 0.0 | 0.9 | 0.00 | 0.00 | 0.00 | 52 | 1001.0 |
| 20260505012025 | 77 | 41 | 0.0 | 0.0 | 0.00 | 0.00 | 0.00 | 51 | 1000.9 |
| 20260505011520 | 77 | 23 | 0.0 | 0.0 | 0.00 | 0.00 | 0.00 | 51 | 1001.0 |
| 20260505011017 | 78 | 11 | 0.0 | 0.9 | 0.00 | 0.00 | 0.00 | 51 | 1001.0 |
| 20260505010512 | 78 | 172 | 0.9 | 1.7 | 0.00 | 0.00 | 0.00 | 50 | 1000.7 |
| 20260505010010 | 78 | 31 | 0.0 | 0.0 | 0.00 | 0.00 | 0.00 | 51 | 1000.7 |
| 20260505005506 | 78 | 328 | 0.9 | 0.9 | 0.00 | 0.00 | 0.00 | 50 | 1000.6 |
| 20260505005004 | 78 | 346 | 0.9 | 0.9 | 0.00 | 0.00 | 0.00 | 49 | 1000.3 |
| 20260505004501 | 79 | 9 | 0.0 | 0.0 | 0.00 | 0.00 | 0.00 | 49 | 1000.3 |
| 20260505003957 | 79 | 252 | 0.9 | 0.9 | 0.00 | 0.00 | 0.00 | 49 | 1000.3 |
| 20260505003455 | 79 | 248 | 1.7 | 1.7 | 0.00 | 0.00 | 0.00 | 48 | 1000.3 |
| 20260505002950 | 79 | 210 | 0.9 | 0.9 | 0.00 | 0.00 | 0.00 | 48 | 1000.2 |
| 20260505002446 | 80 | 349 | 0.0 | 0.9 | 0.00 | 0.00 | 0.00 | 48 | 1000.1 |
| 20260505001945 | 80 | 40 | 1.7 | 1.7 | 0.00 | 0.00 | 0.00 | 48 | 1000.2 |
| 20260505001442 | 80 | 215 | 0.9 | 1.7 | 0.00 | 0.00 | 0.00 | 48 | 1000.4 |
| 20260505000939 | 80 | 54 | 0.0 | 0.0 | 0.00 | 0.00 | 0.00 | 48 | 1000.2 |
| 20260505000437 | 80 | 18 | 0.0 | 0.9 | 0.00 | 0.00 | 0.00 | 49 | 1000.0 |
| 20260504235934 | 80 | 213 | 0.9 | 0.9 | 0.00 | 0.00 | 0.00 | 48 | 1000.2 |
| 20260504235431 | 80 | 332 | 0.0 | 0.0 | 0.00 | 0.00 | 0.00 | 47 | 1000.1 |
| 20260504234927 | 80 | 0 | 0.9 | 1.7 | 0.00 | 0.00 | 0.00 | 47 | 1000.2 |
| 20260504234425 | 80 | 0 | 0.9 | 1.7 | 0.00 | 0.00 | 0.00 | 46 | 1000.2 |
| 20260504233921 | 80 | 230 | 0.9 | 0.9 | 0.00 | 0.00 | 0.00 | 47 | 1000.2 |
| 20260504233417 | 80 | 274 | 1.7 | 1.7 | 0.00 | 0.00 | 0.00 | 46 | 1000.2 |
| 20260504232914 | 80 | 259 | 0.9 | 1.7 | 0.00 | 0.00 | 0.00 | 46 | 1000.3 |
| 20260504232411 | 80 | 192 | 0.9 | 0.9 | 0.00 | 0.00 | 0.00 | 47 | 1000.2 |
| 20260504231908 | 80 | 107 | 0.0 | 0.9 | 0.00 | 0.00 | 0.00 | 47 | 1000.4 |
| 20260504231404 | 80 | 319 | 1.7 | 1.7 | 0.00 | 0.00 | 0.00 | 46 | 1000.1 |
| 20260504230901 | 81 | 222 | 0.9 | 1.7 | 0.00 | 0.00 | 0.00 | 46 | 1000.2 |
| 20260504230358 | 81 | 162 | 2.6 | 4.3 | 0.00 | 0.00 | 0.00 | 45 | 1000.4 |
| 20260504225857 | 82 | 115 | 0.9 | 0.9 | 0.00 | 0.00 | 0.00 | 45 | 1000.2 |
| 20260504225353 | 82 | 8 | 0.0 | 0.9 | 0.00 | 0.00 | 0.00 | 45 | 1000.2 |
| 20260504224851 | 82 | 239 | 1.7 | 2.6 | 0.00 | 0.00 | 0.00 | 45 | 1000.2 |
| 20260504224347 | 81 | 325 | 0.0 | 0.9 | 0.00 | 0.00 | 0.00 | 46 | 1000.4 |
| 20260504223844 | 81 | 221 | 1.7 | 1.7 | 0.00 | 0.00 | 0.00 | 45 | 1000.1 |
| 20260504223339 | 81 | 278 | 1.7 | 1.7 | 0.00 | 0.00 | 0.00 | 45 | 1000.3 |
| 20260504222836 | 81 | 32 | 0.0 | 0.0 | 0.00 | 0.00 | 0.00 | 44 | 1000.4 |
| 20260504222333 | 81 | 22 | 0.0 | 0.0 | 0.00 | 0.00 | 0.00 | 44 | 1000.4 |
| 20260504221832 | 80 | 245 | 1.7 | 2.6 | 0.00 | 0.00 | 0.00 | 45 | 1000.5 |
| 20260504221328 | 81 | 99 | 0.9 | 0.9 | 0.00 | 0.00 | 0.00 | 45 | 1000.4 |
| 20260504220825 | 81 | 344 | 0.0 | 0.9 | 0.00 | 0.00 | 0.00 | 44 | 1000.3 |
| 20260504220322 | 81 | 19 | 0.0 | 0.0 | 0.00 | 0.00 | 0.00 | 43 | 1000.5 |
| 20260504215819 | 80 | 239 | 0.9 | 2.6 | 0.00 | 0.00 | 0.00 | 43 | 1000.4 |
| 20260504215315 | 80 | 242 | 1.7 | 1.7 | 0.00 | 0.00 | 0.00 | 42 | 1000.5 |
| 20260504214811 | 81 | 244 | 2.6 | 2.6 | 0.00 | 0.00 | 0.00 | 43 | 1000.8 |
| 20260504214309 | 80 | 340 | 0.9 | 1.7 | 0.00 | 0.00 | 0.00 | 46 | 1000.7 |
| 20260504213805 | 81 | 221 | 1.7 | 1.7 | 0.00 | 0.00 | 0.00 | 46 | 1000.8 |
| 20260504213301 | 81 | 33 | 1.7 | 2.6 | 0.00 | 0.00 | 0.00 | 45 | 1000.5 |
| 20260504212759 | 81 | 225 | 2.6 | 2.6 | 0.00 | 0.00 | 0.00 | 44 | 1000.6 |
| 20260504212254 | 81 | 226 | 0.9 | 0.9 | 0.00 | 0.00 | 0.00 | 45 | 1000.9 |
| 20260504211752 | 81 | 125 | 0.9 | 0.9 | 0.00 | 0.00 | 0.00 | 45 | 1000.7 |
| 20260504211248 | 81 | 199 | 1.7 | 4.3 | 0.00 | 0.00 | 0.00 | 45 | 1000.9 |
| 20260504210746 | 82 | 302 | 0.9 | 1.7 | 0.00 | 0.00 | 0.00 | 44 | 1000.7 |
| 20260504210243 | 83 | 217 | 2.6 | 2.6 | 0.00 | 0.00 | 0.00 | 43 | 1000.7 |
| 20260504205739 | 82 | 1 | 2.6 | 2.6 | 0.00 | 0.00 | 0.00 | 44 | 1000.9 |
| 20260504205238 | 82 | 116 | 2.6 | 2.6 | 0.00 | 0.00 | 0.00 | 46 | 1000.9 |
| 20260504204736 | 82 | 217 | 2.6 | 4.3 | 0.00 | 0.00 | 0.00 | 45 | 1000.9 |
| 20260504204233 | 83 | 75 | 0.9 | 1.7 | 0.00 | 0.00 | 0.00 | 44 | 1001.1 |
| 20260504203733 | 84 | 228 | 2.6 | 2.6 | 0.00 | 0.00 | 0.00 | 43 | 1000.8 |
| 20260504203230 | 83 | 248 | 0.9 | 2.6 | 0.00 | 0.00 | 0.00 | 42 | 1001.1 |
| 20260504202729 | 84 | 259 | 0.9 | 0.9 | 0.00 | 0.00 | 0.00 | 41 | 1000.9 |
| 20260504202227 | 84 | 84 | 0.9 | 0.9 | 0.00 | 0.00 | 0.00 | 43 | 1001.0 |
| 20260504201724 | 84 | 273 | 0.0 | 0.9 | 0.00 | 0.00 | 0.00 | 44 | 1001.0 |
| 20260504201221 | 83 | 229 | 1.7 | 2.6 | 0.00 | 0.00 | 0.00 | 44 | 1001.0 |
| 20260504200719 | 84 | 328 | 2.6 | 2.6 | 0.00 | 0.00 | 0.00 | 44 | 1001.0 |
| 20260504200214 | 83 | 216 | 1.7 | 1.7 | 0.00 | 0.00 | 0.00 | 44 | 1001.1 |
| 20260504195711 | 84 | 103 | 3.5 | 5.2 | 0.00 | 0.00 | 0.00 | 45 | 1001.0 |
| 20260504195207 | 84 | 307 | 0.9 | 0.9 | 0.00 | 0.00 | 0.00 | 44 | 1001.3 |
| 20260504194704 | 85 | 186 | 2.6 | 4.3 | 0.00 | 0.00 | 0.00 | 42 | 1001.1 |
| 20260504194200 | 84 | 332 | 0.9 | 0.9 | 0.00 | 0.00 | 0.00 | 45 | 1001.0 |
| 20260504193657 | 84 | 213 | 1.7 | 1.7 | 0.00 | 0.00 | 0.00 | 44 | 1001.0 |
| 20260504193155 | 83 | 347 | 0.0 | 0.0 | 0.00 | 0.00 | 0.00 | 42 | 1001.0 |
| 20260504192652 | 83 | 5 | 1.7 | 1.7 | 0.00 | 0.00 | 0.00 | 42 | 1001.1 |
| 20260504192150 | 82 | 265 | 0.9 | 0.9 | 0.00 | 0.00 | 0.00 | 43 | 1001.2 |
| 20260504191648 | 82 | 355 | 0.0 | 0.0 | 0.00 | 0.00 | 0.00 | 46 | 1001.3 |
| 20260504191144 | 83 | 11 | 2.6 | 5.2 | 0.00 | 0.00 | 0.00 | 44 | 1001.3 |
| 20260504190640 | 82 | 51 | 0.9 | 0.9 | 0.00 | 0.00 | 0.00 | 45 | 1001.1 |
| 20260504190137 | 82 | 258 | 0.0 | 0.9 | 0.00 | 0.00 | 0.00 | 43 | 1001.7 |
| 20260504185634 | 82 | 219 | 0.9 | 0.9 | 0.00 | 0.00 | 0.00 | 42 | 1001.5 |
| 20260504185130 | 81 | 352 | 0.9 | 0.9 | 0.00 | 0.00 | 0.00 | 43 | 1001.3 |
| 20260504184626 | 81 | 249 | 2.6 | 4.3 | 0.00 | 0.00 | 0.00 | 44 | 1001.4 |
| 20260504184121 | 81 | 296 | 2.6 | 2.6 | 0.00 | 0.00 | 0.00 | 44 | 1001.5 |
| 20260504183619 | 81 | 60 | 0.0 | 0.9 | 0.00 | 0.00 | 0.00 | 43 | 1001.5 |
| 20260504183116 | 81 | 81 | 0.0 | 0.9 | 0.00 | 0.00 | 0.00 | 44 | 1001.6 |
| 20260504182614 | 81 | 35 | 0.9 | 0.9 | 0.00 | 0.00 | 0.00 | 44 | 1001.6 |
| 20260504182111 | 80 | 214 | 1.7 | 2.6 | 0.00 | 0.00 | 0.00 | 44 | 1001.6 |
| 20260504181608 | 81 | 266 | 2.6 | 2.6 | 0.00 | 0.00 | 0.00 | 46 | 1001.8 |
| 20260504181106 | 81 | 269 | 3.5 | 5.2 | 0.00 | 0.00 | 0.00 | 45 | 1001.5 |
| 20260504180605 | 80 | 226 | 0.9 | 1.7 | 0.00 | 0.00 | 0.00 | 45 | 1001.8 |
| 20260504180104 | 80 | 227 | 2.6 | 4.3 | 0.00 | 0.00 | 0.00 | 45 | 1001.7 |
| 20260504175600 | 80 | 0 | 1.7 | 2.6 | 0.00 | 0.00 | 0.00 | 47 | 1002.0 |
| 20260504175057 | 80 | 219 | 1.7 | 2.6 | 0.00 | 0.00 | 0.00 | 45 | 1001.8 |
| 20260504174555 | 79 | 253 | 1.7 | 1.7 | 0.00 | 0.00 | 0.00 | 45 | 1001.7 |
| 20260504174051 | 79 | 247 | 2.6 | 4.3 | 0.00 | 0.00 | 0.00 | 45 | 1001.7 |
| 20260504173548 | 79 | 129 | 1.7 | 1.7 | 0.00 | 0.00 | 0.00 | 46 | 1001.8 |
| 20260504173046 | 79 | 33 | 0.9 | 0.9 | 0.00 | 0.00 | 0.00 | 45 | 1001.9 |
| 20260504172542 | 79 | 138 | 2.6 | 2.6 | 0.00 | 0.00 | 0.00 | 46 | 1001.9 |
| 20260504172038 | 79 | 145 | 1.7 | 2.6 | 0.00 | 0.00 | 0.00 | 45 | 1002.1 |
| 20260504171535 | 78 | 247 | 0.9 | 0.9 | 0.00 | 0.00 | 0.00 | 46 | 1002.1 |
| 20260504171032 | 77 | 312 | 0.9 | 0.9 | 0.00 | 0.00 | 0.00 | 47 | 1002.3 |
| 20260504170528 | 78 | 215 | 2.6 | 2.6 | 0.00 | 0.00 | 0.00 | 46 | 1002.2 |
| 20260504150912 | 72 | 233 | 3.5 | 5.2 | 0.00 | 0.00 | 0.00 | 51 | 1002.7 |
| 20260504150409 | 71 | 121 | 2.6 | 4.3 | 0.00 | 0.00 | 0.00 | 52 | 1002.6 |
| 20260504140835 | 67 | 113 | 2.6 | 2.6 | 0.00 | 0.00 | 0.00 | 57 | 1002.7 |
| 20260504140331 | 67 | 238 | 0.9 | 1.7 | 0.00 | 0.00 | 0.00 | 56 | 1002.8 |
| 20260504130800 | 66 | 166 | 2.6 | 2.6 | 0.00 | 0.00 | 0.00 | 58 | 1002.7 |
| 20260504130256 | 65 | 211 | 2.6 | 4.3 | 0.00 | 0.00 | 0.00 | 58 | 1002.5 |
| 20260504120220 | 64 | 214 | 0.9 | 0.9 | 0.00 | 0.00 | 0.00 | 58 | 1003.0 |
| 20260504110641 | 65 | 354 | 0.9 | 0.9 | 0.00 | 0.00 | 0.00 | 56 | 1003.1 |
| 20260504110137 | 65 | 93 | 0.9 | 0.9 | 0.00 | 0.00 | 0.00 | 56 | 1003.1 |
| 20260504100557 | 66 | 57 | 0.0 | 0.9 | 0.00 | 0.00 | 0.00 | 53 | 1003.5 |
| 20260504081951 | 67 | 248 | 1.7 | 2.6 | 0.00 | 0.00 | 0.00 | 52 | 1003.6 |
| 20260504081448 | 66 | 213 | 0.9 | 1.7 | 0.00 | 0.00 | 0.00 | 52 | 1003.9 |
| 20260504080944 | 66 | 1 | 0.0 | 0.9 | 0.00 | 0.00 | 0.00 | 52 | 1004.2 |
| 20260504080441 | 66 | 137 | 0.9 | 1.7 | 0.00 | 0.00 | 0.00 | 53 | 1004.1 |
| 20260504070409 | 66 | 58 | 0.0 | 0.9 | 0.00 | 0.00 | 0.00 | 52 | 1004.8 |
| 20260504050253 | 66 | 138 | 1.7 | 1.7 | 0.00 | 0.00 | 0.00 | 59 | 1006.5 |
| 20260504045750 | 66 | 42 | 0.0 | 0.0 | 0.00 | 0.00 | 0.00 | 57 | 1006.5 |
| 20260504045245 | 66 | 30 | 0.0 | 0.0 | 0.00 | 0.00 | 0.00 | 58 | 1006.3 |
| 20260504044743 | 66 | 30 | 0.0 | 0.0 | 0.00 | 0.00 | 0.00 | 56 | 1006.2 |
| 20260504044240 | 67 | 28 | 0.0 | 0.0 | 0.00 | 0.00 | 0.00 | 56 | 1006.5 |
| 20260504043737 | 67 | 28 | 0.0 | 0.0 | 0.00 | 0.00 | 0.00 | 56 | 1006.4 |
| 20260504043234 | 67 | 28 | 0.0 | 0.0 | 0.00 | 0.00 | 0.00 | 56 | 1006.5 |
| 20260504042732 | 67 | 27 | 0.0 | 0.0 | 0.00 | 0.00 | 0.00 | 54 | 1006.3 |